Regional Weather Roundup
Issued by NWS Wakefield, VA

Home | Current Version | Previous Version | Graphics & Text | Print | Product List | Glossary On
Versions: 1 2 3 4 5 6 7 8 9 10 11 12 13 14 15 16 17 18 19 20 21 22 23 24 25 26 27
000
ASUS41 KAKQ 220015
RWRAKQ

REGIONAL WEATHER ROUNDUP
NATIONAL WEATHER SERVICE WAKEFIELD VA
800 PM EDT WED JUN 21 2017

Note: "fair" indicates few or no clouds below 12,000 feet with no
significant weather and/or obstructions to visibility. * = Denotes
station may not report precipitation (e.g., rain,snow,etc.),
thunder or fog.

VAZ042-051-052>054-056-220100-
NORTHERN VIRGINIA

CITY           SKY/WX    TMP DP  RH WIND       PRES   REMARKS
WASH NATIONAL  CLOUDY    85  67  54 SW8       29.95R
DULLES         CLOUDY    83  62  49 SW5       29.95S
FORT BELVOIR   MOCLDY    82  68  61 CALM      29.94S
QUANTICO       CLEAR     84  74  71 SW7       29.95S
FREDERICKSBRG* CLEAR     85  70  60 SW7       29.95S
STAFFORD*      CLEAR     81  67  62 S5        30.00R
WARRENTON      PTCLDY    83  61  47 S3        29.95S
CULPEPER*      CLEAR     83  66  57 CALM      29.96S
MANASSAS*      MOCLDY    83  67  58 S3        29.95S
LEESBURG*      PTCLDY    82  66  57 W3        29.96S
WINCHESTER     MOCLDY    81  57  44 W5        29.97S
FRONT ROYAL*   CLEAR     79  61  53 CALM      29.96S
LURAY*         PTCLDY    79  68  69 CALM      29.98S
$$

VAZ048-049-060>072-079>083-220100-
CENTRAL AND SOUTH CENTRAL VIRGINIA

CITY           SKY/WX    TMP DP  RH WIND       PRES   REMARKS
RICHMOND       MOCLDY    82  70  66 SW13      30.00R
CHESTERFIELD*  NOT AVBL
PETERSBURG*    CLOUDY    78  69  73 CALM      30.02R
HANOVER        CLOUDY    83  66  56 SW10      30.00R
TAPPAHANNOCK*  CLOUDY    82  62  51 S5        29.99S
QUINTON*       FAIR      81  70  70 MISG      29.99R
CHARLOTTSVILLE CLOUDY    83  66  56 SW7       29.98R
GORDONSVILLE*  CLOUDY    82  67  62 SW6       29.97S
ORANGE*        CLEAR     81  64  57 SW6       29.97S
LOUISA*        CLOUDY    84  72  65 S5        29.98R
BUMPASS*       FAIR      81  70  69 S3        29.98S
FARMVILLE*     CLOUDY    79  66  64 S3        30.00R
CREWE*         FAIR      79  67  66 CALM      30.02R
FORT PICKETT*  FAIR     N/A N/A N/A SW6       30.02S
CHASE CITY*    FAIR      80  72  75 CALM      30.03S
CLARKSVILLE*   FAIR      77  73  88 S3        30.03S
SOUTH HILL*    CLEAR     78  72  81 S6        30.09S
LAWRENCEVILLE* FAIR      78  72  82 S6        30.02F
EMPORIA*       CLEAR     79  70  73 CALM      30.04S
$$

VAZ088>098-220100-
SOUTHEAST VIRGINIA

CITY           SKY/WX    TMP DP  RH WIND       PRES   REMARKS
NORFOLK        CLOUDY    81  70  69 SW13      30.00F
VIRGINIA BEACH CLOUDY    79  68  69 S9        30.00F
NORFOLK NAVAL  CLOUDY    80  69  69 SW8       30.02F
WEST POINT*    PTCLDY    82  70  67 SW6       30.01R
SALUDA*        FAIR      82  73  74 S5        29.98S
NEWPORT NEWS   PTCLDY    80  70  71 SW9       30.00S
LANGLEY AFB    CLOUDY    80  71  73 SW13      30.00S
FORT EUSTIS    PTCLDY    81  72  74 S7        29.99R
WILLIAMSBURG*  CLOUDY    82  72  69 SW6       30.01S
HR EXEC AP*    FAIR      79  70  73 SW7       29.99F
FRANKLIN*      CLEAR     79  72  78 S6        30.02F
US460-WAKEFLD  CLOUDY    79  72  79 SW3       30.01F
$$

VAZ020-022-025-037-045-220100-
WEST CENTRAL AND SOUTHWEST VIRGINIA

CITY           SKY/WX    TMP DP  RH WIND       PRES   REMARKS
STAUNTON*      CLOUDY    78  62  57 SW3       30.03S
WAYNESBORO*    CLOUDY    78  65  63 SW8       30.03S
HOT SPRINGS VA CLOUDY    70  48  46 SW7       30.17S
LYNCHBURG      CLEAR     79  68  69 S7        30.03S
DANVILLE       CLOUDY    77  71  82 S3        30.04S
SOUTH BOSTON*  FAIR      78  69  74 S3        30.03S
MARTINSVILLE   CLOUDY    75  68  78 CALM      30.08S
ROANOKE        PTCLDY    82  62  50 SW6       30.05S
BLACKSBURG     CLOUDY    76  62  61 CALM      30.13R
DUBLIN*        CLOUDY    77  56  48 W7        30.12R
MARION*        CLOUDY    73  60  64 CALM      30.16S
HILLSVILLE*    CLOUDY    73  52  46 CALM      30.13S
RICHLANDS*     NOT AVBL
WISE*          PTCLDY    72  61  68 CALM      30.16S
ABINGDON*      PTCLDY    77  59  52 W5        30.12S
$$

MDZ021>025-VAZ099-100-220100-
SOUTHERN MARYLAND AND THE DELMARVA PENINSULA

CITY           SKY/WX    TMP DP  RH WIND       PRES   REMARKS
PATUXENT RIVER MOCLDY    81  69  67 S7        29.95S
BAY BRIDGE APT CLOUDY    75  66  73 NE9       29.96R
LEONARDTOWN    PTCLDY    79  68  69 CALM      29.98R
DOVER          HVY RAIN  70  70 100 NW10      29.97R VSB 1/2
GEORGETOWN     CLEAR     79  68  69 SW10      29.95S
EASTON         MOCLDY    82  64  54 W7        29.98R
CAMBRIDGE      CLEAR     82  66  57 SW6       29.95S
SALISBURY      CLEAR     78  73  84 S9        29.96R
OCEAN CITY     CLEAR     78  71  79 SW12G23   29.97R
WALLOPS ISLAND PTCLDY    76  72  87 S7        29.98S
ACCOMACK*      CLEAR     81  71  71 SW6       29.99S
$$

NCZ012>017-030>032-220100-
NORTH CENTRAL AND EASTERN NORTH CAROLINA

CITY           SKY/WX    TMP DP  RH WIND       PRES   REMARKS
ROANOKE RAPIDS FAIR      79  72  78 CALM      30.04R
RALEIGH        MOCLDY    80  70  71 W5        30.06R
ELIZABETH CITY PTCLDY    78  74  87 S5        30.04R
AHOSKIE*         N/A     76  73  91 CALM      30.04S
EDENTON*       PTCLDY    82  74  78 CALM      30.05R
CURRITUCK*     PTCLDY    80  72  76 SW5       30.05R
KILL DEVIL HLS PTCLDY    79  71  77 CALM      30.04R
MANTEO         PTCLDY    79  73  80 SW16      30.05S
CAPE HATTERAS  CLOUDY    78  70  76 SW13      30.08R
TARBORO*       NOT AVBL
GOLDSBORO      NOT AVBL
WASHINGTON     CLOUDY    80  70  71 W6        30.06R
GREENVILLE     MOCLDY    79  73  83 CALM      30.08R
NEW BERN       CLOUDY    78  72  81 S8        30.09R
WILMINGTON     CLOUDY    78  73  84 S7        30.10R
$$

VAZ048-220100-
ELSEWHERE

CITY           SKY/WX    TMP DP  RH WIND       PRES   REMARKS
HARRISBURG PA  PTCLDY    76  64  66 NW5       29.93R
BALTIMORE      CLOUDY    75  64  68 NW3       29.95R
ANNAPOLIS      CLOUDY    81  68  64 N13       29.95R
ANDREWS AFB    CLOUDY    82  65  57 SW10      29.95R
PHILADELPHIA   MOCLDY    75  63  66 W9        29.92S
HENDERSON NC   MOCLDY    75  68  77 SW6       30.05S
GREENSBORO     MOCLDY    78  71  79 SW9       30.06S
ROCKY MOUNT    PTCLDY    77  73  87 S6        30.05R
$$

VAZ100-220100-
MARINE

STATION/POSITION TIME  TEMP    WIND        PRES    WAVE   SWELL
                       AIR SEA DIR/SP/G            HT/PER HT/PER
                 (UTC) (F)     (DEG/KT/KT) (MB)    (FT/S) (FT/S)
BRANDYWINE LGT   2348          230/ 21/ 25 1013.6R
CAPE MAY NJ      2348   75 72  220/ 10/ 14 1013.3R
LEWES DE         2348   80 71  230/  5/ 10 1013.6R
15NM E FENWICK I 2350   70 68  210/ 16/ 21 1014.4R   3/ 5   2/14
OCEAN-CITY-INLET 2348   66 62  210/  9/ 11 1014.8R
WACHAPREAGUE VA  2348   79 80  200/  8/ 11 1015.3R
THOMAS POINT MD  0000   82 78  230/  7/  8   N/A
GOOSES REEF MD   2350   81     200/  8/ 10 1014.9R
COVE POINT MD    2348   81     220/  9/ 10 1014.8F
SOLOMONS ISLAND  2348   81 76  210/  7/  8   N/A
BISHOPS HEAD MD  2348   82 81  200/ 12/ 16 1014.8F
PINEY POINT MD   2348          230/ 11/ 12   N/A
POTOMAC MD       2350   83     230/ 10/ 14 1013.7R
CAMBRIDGE MD     2348   82 81              1014.8R
LEWISETTA VA     2348   83 80  230/ 10/ 12 1014.6S
RAPPAHANNOCK LGT 2348          200/ 12/ 13 1016.2R
YORK RVR RNG VA  2348   81     240/ 12/ 14 1016.1S
YORKTOWN VA      2348   81 76  220/  8/ 12 1015.4S
JAMESTOWN VA     2350   81     210/ 10/ 12   N/A
DOMINION TERM VA 2348   80     210/  9/ 12 1016.1F
KIPTOPEKE VA     2348      79  230/  6/  8   N/A
CHES BAY BRIDGE  2348   80 72  230/ 12/ 16 1015.7F
CAPE HENRY VA    2348   80     210/  7/ 11   N/A
WILLOUBY STN VA  2348   80     210/ 11/ 12 1015.9F
S CRANEY ISL VA  2348   81     210/  8/ 12 1015.8F
CAPE HENRY BUOY  2330      73                N/A     2/14
1ST LANDING BUOY 2350   80                 1015.9S
CAPE CHARLES BUO 2351      71                N/A     2/14
64NM E OF VA BCH 2350   72 71  220/ 10/ 12 1017.6R   3/13   2/13
DUCK PIER NC     2348   79 65  230/  8/ 11 1017.2R
44100 DUCK FRF   2305      68                N/A     2/14   2/14
OREGON INLET NC  2348          200/ 18/ 21 1017.7R
HATTERAS NC      2348   77 79  210/ 11/ 15 1018.2R
DIAMOND SHLS NC  2350   79 79  200/ 16/ 17 1018.4R   3/ 7   2/ 7
CAPE LOOKOUT NC  0000   77     190/ 11/ 13 1018.7R
$$




USA.gov is the U.S. government's official web portal to all federal, state and local government web resources and services.